Location: Santa Cristina
(46.5667°N, 11.7167°E)
Time: 05:18:41
(UTC+00:00)

CZ-2D R/B - Pass Details

Date: 21 April 2021
Orbit: 792 x 844 km, 98.7° (Epoch: 14 May)

Event Time Altitude Azimuth Distance (km) Brightness Sun altitude
Rises 02:48:35 0° 359° (N) 3,415 5.9 -14.1°
Reaches altitude 10° 02:52:10 10° 335° (NNW) 2,476 4.8 -13.6°
Maximum altitude 02:54:47 14° 306° (NW) 2,215 4.2 -13.2°
Drops below altitude 10° 02:57:23 10° 278° (W) 2,466 4.2 -12.9°
Enters shadow 02:57:34 10° 276° (W) 2,499 4.2 -12.8°
